To NAV CANADA Home Page Login to a new session Search on AWWS site Feedback and Comments Disclaimer Vers la page française équivalente Tips FAQ What's new on the site To the Forecasts and Observations / NOTAM section To "File a Flight Plan" website Publications and other links Update of the User's profile FIC Telephone Numbers My Weather Data Folder Route Weather Data Regional Weather Data Local Weather Data To the Forecasts and Observations / NOTAM section
Request Generated 06/26/2017 at 22:31:12 UTC . Weather information available at that time is displayed.

METAR/TAF

NAUJAAT/NU    

METAR CYUT 262200Z 34016G23KT 20SM SCT040 14/05 A2996 RMK SC4
14.3/4.3/TR/0.0 SNW CVR/NIL LAST STFD OBS/NXT SLP149=
METAR CYUT 262100Z 35018KT 25SM SCT040 13/05 A2996 RMK SC3 SLP149=
METAR CYUT 262000Z 33018G23KT 20SM SCT035 12/04 A2996 RMK SC3 CU
ASOCTD SLP150=

*** REMARK        : Forecast period has ended; this was the last TAF issued
*** REMARQUE : La période de prévision est échue; ceci était le dernier TAF qui a été émis
TAF CYUT 261838Z 2619/2622 35015G25KT P6SM SCT020
RMK NXT FCST WILL BE ISSUED AT 271345Z=
Your time UTC time
Weather data provided by Environment Canada and NAV CANADA